Location: Laverne
(36.7100°N, 99.8930°W)
Time: 18:45:46
(UTC-06:00)

Daily predictions for brighter satellites

Satellite Brightness Start Highest point End
(mag) Time Altitude Azimuth Time Altitude Azimuth Time Altitude Azimuth
Cosmos 2322 4.3 18:08:50 10° SSW 18:14:26 62° WNW 18:20:05 10° NNE
Cosmos 44 Rocket 4.4 18:10:53 10° SSE 18:15:13 28° ESE 18:19:31 10° NE
SKYMED 2 4.2 18:11:53 10° NNE 18:15:54 36° E 18:19:54 10° SSE
SMAP 3.1 18:12:05 10° SSE 18:16:43 90° WSW 18:21:24 10° NNW
Cosmos 1726 3.9 18:16:22 10° NE 18:18:25 14° ENE 18:20:28 10° ESE
SPOT 3 Rocket 3.5 18:13:50 10° SSE 18:18:59 84° ENE 18:24:10 10° NNW
Thor Agena Rocket 3.7 18:18:10 10° NNE 18:23:27 82° WNW 18:28:37 10° SSW
COSMOS 2441 4.4 18:19:08 10° SSE 18:23:57 66° ENE 18:28:47 10° N
Cosmos 2150 Rocket 4.0 18:19:26 10° NNW 18:24:41 84° ENE 18:29:50 10° SSE
Meteor 1-21 Rocket 4.4 18:20:21 10° S 18:26:17 88° E 18:32:12 10° N
Cosmos 1500 Rocket 4.1 18:23:15 10° SSE 18:27:12 37° E 18:31:12 10° NNE
Cosmos 2151 4.1 18:24:07 10° SE 18:27:23 22° E 18:30:40 10° NE
Cosmos 2263 Rocket 3.9 18:22:46 10° NW 18:27:59 38° WSW 18:33:07 10° S
Cosmos 2333 4.2 18:23:18 10° SSW 18:28:53 74° ESE 18:34:28 10° NNE
Cosmos 1898 Rocket 3.9 18:24:25 10° NNW 18:29:45 72° WSW 18:35:02 10° S
Meteor 1-28 Rocket 3.9 18:27:10 10° NNE 18:30:31 32° E 18:33:52 10° SSE
IDEFIX/ARIANE 42P 3.3 18:25:46 10° S 18:30:52 58° W 18:36:02 10° NNW
Cosmos 540 Rocket 4.5 18:26:58 10° SSE 18:31:11 26° E 18:35:23 10° NE
Cosmos 2034 Rocket 4.5 18:25:05 10° NNW 18:31:24 69° W 18:37:43 10° S
Cosmos 1151 Rocket 4.0 18:28:57 10° NNE 18:32:30 25° ENE 18:36:02 10° SE
Atlas Centaur 2 3.1 18:28:40 10° WSW 18:33:13 32° SSW 18:36:59 10° SE
Cosmos 1844 Rocket 2.9 18:28:12 10° N 18:33:40 47° ENE 18:39:04 10° SE
OAO 3 Rocket 3.5 18:30:39 10° W 18:35:30 65° S 18:40:17 10° ESE
USA 215 3.5 18:29:55 10° ESE 18:36:12 51° NE 18:42:30 10° NW
BREEZE-M DEB (TANK) 1.7 18:33:12 10° WSW 18:36:56 70° NW 18:38:41 15° NE
Cosmos 1125 Rocket 4.4 18:32:54 10° N 18:37:12 25° ENE 18:41:28 10° ESE
OTV 4 0.5 18:35:13 10° W 18:38:09 65° N 18:40:16 17° ENE
SEDSat Delta rocket 4.3 18:34:11 10° WSW 18:39:33 46° S 18:44:14 10° ESE
GPS 2-04 Rocket1 4.1 18:35:45 10° W 18:39:49 39° SSW 18:43:48 10° SE
Cosmos 1980 4.3 18:36:03 10° S 18:41:12 37° ESE 18:46:23 10° NE
H-2A ROCKET BODY 4.4 18:02:27 10° WSW 18:42:12 50° S 18:49:06 10° ESE
Cosmos 2360 Rocket 3.8 18:37:19 10° WSW 18:42:18 32° WNW 18:47:18 10° N
Molniya-1 4.1 18:40:57 10° SW 18:43:21 60° NW 18:47:25 10° NNE
Resurs 01 Rocket 3.6 18:45:27 12° NE 18:45:27 12° NE 18:46:01 10° NE
MONITOR-E 4.3 18:40:57 10° S 18:44:07 81° WSW 18:47:18 10° NNW
Cosmos 990 Rocket 4.0 18:39:33 10° NNW 18:44:51 87° ENE 18:50:06 10° SSE
Cosmos 2333 Rocket 2.3 18:43:38 10° S 18:49:06 53° ESE 18:54:35 10° NNE
NOSS 0 Rocket 4.1 18:47:06 10° S 18:53:07 55° ESE 18:59:11 10° NNE
Cosmos 1340 Rocket 4.0 18:50:09 10° SE 18:53:16 22° E 18:54:03 21° ENE
Cosmos 841 Rocket 3.8 18:51:16 10° SSW 18:56:31 70° WNW 19:01:47 10° NNE
Cosmos 2228 Rocket 3.6 18:57:58 10° NNW 19:02:19 62° W 19:06:41 10° S
FENGYUN 3A 4.5 18:58:12 10° ESE 19:02:33 26° ENE 19:06:56 10° NNE
COSMO-SKYMED 1 3.1 18:59:40 10° N 19:03:57 59° WNW 19:08:12 10° SSW
Cosmos 332 Rocket 4.2 19:01:47 10° SSW 19:06:33 64° WNW 19:11:22 10° NNE
SL-14 R/B 3.1 19:03:09 10° S 19:07:00 66° E 19:10:55 10° NNE
Aureole 2 Rocket 3.6 19:04:16 10° SSE 19:06:47 25° ESE 19:06:47 25° ESE
Cosmos 2279 Rocket 4.1 19:03:58 10° N 19:10:01 52° E 19:16:02 10° SSE
Cosmos 2219 Rocket 2.3 19:04:52 10° SSW 19:10:30 76° WNW 19:16:10 10° NNE
Cosmos 1484 Rocket 4.3 19:09:48 10° SSW 19:13:25 38° W 19:17:07 10° NNW
Cosmos 2084 3.1 19:10:18 10° SSW 19:14:15 86° WNW 19:16:07 29° NNE
Cosmos 2278 Rocket 2.4 19:09:27 10° N 19:14:53 45° ENE 19:20:18 10° SE
METEOR-M 4.0 19:14:21 10° SSE 19:19:40 74° ENE 19:25:01 10° N
Intelsat 5-1 Rocket 4.2 19:18:45 10° SSW 19:20:49 15° SSE 19:22:50 12° SE
Cosmos 2180 Rocket 4.5 19:17:40 10° N 19:23:42 55° E 19:29:44 10° SSE
CENTAUR R/B 3.8 19:18:50 10° WSW 19:24:23 36° NW 19:30:36 10° NNE
Cosmos 1844 3.7 19:19:01 10° NNW 19:24:48 85° WSW 19:30:36 10° SSE
Meteor 2-10 3.8 19:23:00 10° N 19:28:03 66° E 19:33:12 10° SSE
Nadezhda 4 Rocket 4.3 19:22:41 10° SSE 19:28:27 42° E 19:31:42 24° NE
Lacrosse 5 rocket 3.5 19:26:14 10° N 19:26:44 12° N 19:26:44 12° N
COSMOS 2428 4.5 19:24:44 10° WSW 19:29:39 29° WNW 19:34:36 10° N
ALOS 2.4 19:26:16 10° SE 19:30:43 46° ENE 19:35:11 10° N
Abrixas 4.2 19:29:03 10° SSW 19:30:36 24° S 19:30:36 24° S
FREGAT/IRIS 4.3 19:28:55 10° S 19:30:17 24° S 19:30:17 24° S
Cosmos 1626 4.4 19:29:10 10° SSE 19:29:48 14° SSE 19:29:48 14° SSE
Hubble Space Telescope 2.9 19:32:23 10° WSW 19:35:25 20° SSW 19:37:08 16° SSE
Cosmos 44 3.4 19:31:53 10° SSW 19:37:12 83° WNW 19:39:29 34° NNE
Abrixas rocket 3.8 19:34:52 10° WNW 19:37:54 33° SW 19:38:58 26° S
Cosmos 371 Rocket 4.4 19:33:28 10° SW 19:38:01 41° WNW 19:42:34 10° N
Cosmos 2237 Rocket 2.3 19:32:36 10° SSW 19:38:12 75° WNW 19:42:11 20° NNE
Cosmos 1300 3.7 19:36:45 10° NNW 19:40:27 47° W 19:44:07 10° SSW
SL-16 R/B 2.4 19:35:58 10° S 19:41:21 47° ESE 19:41:29 47° ESE
SL-19 R/B 4.3 19:39:25 10° SSE 19:45:34 82° ENE 19:51:19 10° NNW
Cosmos 2058 3.8 19:45:07 10° SSW 19:49:06 47° W 19:51:51 18° NNW
Cosmos 1726 4.1 19:50:30 10° NNW 19:53:48 30° W 19:57:06 10° SSW
Cosmos 1805 Rocket 3.7 19:52:26 10° SSW 19:56:52 72° W 19:57:26 62° NNW
SJ-6B 4.1 19:53:11 10° S 19:56:58 41° W 20:00:52 10° NNW
Cosmos 372 Rocket 3.9 19:53:31 10° NNW 19:58:37 81° WSW 20:01:25 27° S
FengYun 1-2 T 4.3 20:01:04 10° S 20:06:39 75° WSW 20:12:13 10° NNW
OTV 4 4.0 20:11:20 10° W 20:11:32 11° W 20:11:32 11° W
Milstar 3 4.0 20:10:08 10° WSW 20:16:05 34° SSW 20:19:00 26° SSE
USA 215 4.3 20:13:05 10° SSE 20:19:12 42° SW 20:25:23 10° WNW
Resurs 01 Rocket 3.9 20:23:01 17° NNW 20:23:01 17° NNW 20:24:07 10° NNW
Atlas Centaur 2 4.1 20:19:36 10° SW 20:21:11 12° SSW 20:21:12 12° SSW
Spot 2 Rocket 4.3 20:22:28 10° S 20:27:20 49° W 20:32:13 10° NNW
CZ-3A R/B 3.4 20:26:32 10° NW 20:29:46 51° NW 20:29:46 51° NW
Cosmos 2333 Rocket 4.4 20:29:32 10° WSW 20:33:40 21° NW 20:36:58 13° NNW
Cosmos 2278 Rocket 4.4 20:54:21 10° NW 20:58:36 22° W 21:02:51 10° SSW
